TimeMST,TemperatureF,Dew PointF,Humidity,Sea Level PressureIn,VisibilityMPH,Wind Direction,Wind SpeedMPH,Gust SpeedMPH,PrecipitationIn,Events,Conditions,WindDirDegrees,DateUTC
1:54 AM,21.0,17.1,85,30.41,10.0,WNW,15.0,-,N/A,,Partly Cloudy,300,2013-01-20 08:54:00
2:18 AM,19.4,17.6,93,30.29,10.0,NW,11.5,21.9,N/A,,Mostly Cloudy,310,2013-01-20 09:18:00
2:25 AM,21.2,17.6,86,30.29,10.0,NW,20.7,31.1,N/A,,Mostly Cloudy,320,2013-01-20 09:25:00
2:41 AM,19.4,17.6,93,30.33,10.0,WNW,17.3,26.5,N/A,,Overcast,300,2013-01-20 09:41:00
2:54 AM,19.9,17.1,89,30.48,10.0,NW,15.0,24.2,N/A,,Overcast,310,2013-01-20 09:54:00
3:54 AM,19.0,16.0,88,30.49,10.0,WNW,17.3,25.3,N/A,,Overcast,290,2013-01-20 10:54:00
4:54 AM,18.0,14.0,84,30.52,4.0,WNW,19.6,28.8,0.00,Snow,Light Snow,290,2013-01-20 11:54:00
5:30 AM,17.6,14.0,86,30.38,2.5,WNW,19.6,25.3,0.00,Snow,Light Snow,300,2013-01-20 12:30:00
5:54 AM,17.1,14.0,88,30.53,2.5,WNW,18.4,-,0.00,Snow,Light Snow,300,2013-01-20 12:54:00
6:29 AM,17.6,12.2,79,30.38,3.0,WNW,18.4,25.3,0.00,Snow,Light Snow,300,2013-01-20 13:29:00
6:54 AM,16.0,12.9,88,30.53,4.0,NW,16.1,-,0.00,Snow,Light Snow,310,2013-01-20 13:54:00
7:54 AM,16.0,12.0,84,30.54,8.0,WNW,9.2,-,0.00,Snow,Light Snow,300,2013-01-20 14:54:00
8:35 AM,15.8,12.2,86,30.39,3.0,West,8.1,-,0.00,Snow,Light Snow,280,2013-01-20 15:35:00
8:54 AM,15.1,12.9,91,30.56,2.5,West,10.4,-,0.00,Snow,Light Snow,270,2013-01-20 15:54:00
9:09 AM,15.8,12.2,86,30.39,1.5,West,10.4,-,0.00,Snow,Light Snow,280,2013-01-20 16:09:00
9:24 AM,15.8,12.2,86,30.40,2.5,WNW,9.2,-,0.00,Snow,Light Snow,300,2013-01-20 16:24:00
9:37 AM,15.8,12.2,86,30.41,3.0,West,3.5,-,0.00,Snow,Light Snow,280,2013-01-20 16:37:00
9:54 AM,15.1,12.0,88,30.57,4.0,West,3.5,-,0.00,Snow,Light Snow,270,2013-01-20 16:54:00
10:13 AM,15.8,12.2,86,30.40,3.0,West,5.8,-,0.00,Snow,Light Snow,270,2013-01-20 17:13:00
10:54 AM,14.0,10.9,88,30.57,4.0,West,5.8,-,0.00,Snow,Light Snow,280,2013-01-20 17:54:00
11:46 AM,14.0,10.4,86,30.37,9.0,West,6.9,-,0.00,,Overcast,280,2013-01-20 18:46:00
11:54 AM,14.0,10.0,84,30.53,9.0,West,8.1,-,0.00,,Overcast,280,2013-01-20 18:54:00
12:54 PM,14.0,10.0,84,30.52,10.0,WNW,8.1,-,N/A,,Overcast,290,2013-01-20 19:54:00
1:54 PM,14.0,10.0,84,30.51,10.0,West,5.8,-,N/A,,Overcast,280,2013-01-20 20:54:00
2:54 PM,14.0,10.0,84,30.50,10.0,West,8.1,-,N/A,,Overcast,280,2013-01-20 21:54:00
3:54 PM,14.0,9.0,80,30.49,10.0,West,6.9,-,N/A,,Overcast,270,2013-01-20 22:54:00
4:54 PM,14.0,9.0,80,30.50,10.0,NW,4.6,-,N/A,,Overcast,310,2013-01-20 23:54:00
5:54 PM,12.9,9.0,84,30.50,10.0,West,6.9,-,N/A,,Overcast,260,2013-01-21 00:54:00
6:54 PM,12.9,9.0,84,30.49,10.0,WNW,4.6,-,N/A,,Overcast,300,2013-01-21 01:54:00
7:54 PM,12.9,9.0,84,30.47,10.0,West,4.6,-,N/A,,Overcast,260,2013-01-21 02:54:00
8:54 PM,12.9,9.0,84,30.46,10.0,NNE,4.6,-,N/A,,Overcast,30,2013-01-21 03:54:00
9:54 PM,12.9,9.0,84,30.43,10.0,Calm,Calm,-,N/A,,Overcast,0,2013-01-21 04:54:00
10:54 PM,14.0,10.9,88,30.42,10.0,Calm,Calm,-,N/A,,Overcast,0,2013-01-21 05:54:00
11:54 PM,14.0,12.0,92,30.40,10.0,SE,4.6,-,N/A,,Overcast,130,2013-01-21 06:54:00